RYR4TT EGPH-LZIB

Flight info

Callsign RYR4TT
Flight time N/A
Altitude 37000
Route TLA Y96 OTBUN DCT LONAM DCT POVEL DCT OMELO DCT EVIKU DCT BNO DCT ODNEM A4 BERVA
Aircraft B738/M-SDE2E3FGHIRWXY/LB1

Departure

Time 2026-05-06 15:24
Airport Edinburgh Airport (EGPH)

Arrival

Time N/A
Airport M. R. Štefánik Airport (LZIB)
Time Latitude Longitude Altitude Speed Heading
2026-05-06 15:18 55.94936 -3.35843 115 ft 0 kts 321°
2026-05-06 15:19 55.94948 -3.35858 115 ft 6 kts 331°
2026-05-06 15:19 55.95011 -3.35834 115 ft 13 kts 16°
2026-05-06 15:19 55.95080 -3.35947 115 ft 16 kts 298°
2026-05-06 15:20 55.95118 -3.36137 113 ft 16 kts 288°
2026-05-06 15:20 55.95120 -3.36323 114 ft 16 kts 239°
2026-05-06 15:20 55.95061 -3.36496 114 ft 17 kts 238°
2026-05-06 15:20 55.94993 -3.36694 115 ft 20 kts 238°
2026-05-06 15:21 55.94920 -3.36910 112 ft 20 kts 239°
2026-05-06 15:21 55.94850 -3.37122 113 ft 20 kts 239°
2026-05-06 15:21 55.94781 -3.37326 113 ft 19 kts 238°
2026-05-06 15:21 55.94713 -3.37524 114 ft 19 kts 238°
2026-05-06 15:22 55.94639 -3.37738 113 ft 22 kts 238°
2026-05-06 15:22 55.94558 -3.37980 112 ft 24 kts 239°
2026-05-06 15:22 55.94468 -3.38248 112 ft 26 kts 239°
2026-05-06 15:22 55.94378 -3.38513 112 ft 24 kts 238°
2026-05-06 15:23 55.94293 -3.38762 115 ft 23 kts 240°
2026-05-06 15:23 55.94367 -3.38943 114 ft 21 kts 354°
2026-05-06 15:23 55.94481 -3.38786 113 ft 31 kts 57°
2026-05-06 15:23 55.94725 -3.38068 111 ft 103 kts 59°
2026-05-06 15:24 55.95204 -3.36653 120 ft 161 kts 59°
2026-05-06 15:24 55.95785 -3.34885 805 ft 164 kts 59°
2026-05-06 15:24 55.96506 -3.33313 1673 ft 165 kts 40°
2026-05-06 15:24 55.97383 -3.32012 2472 ft 169 kts 42°
2026-05-06 15:25 55.98357 -3.30478 2792 ft 203 kts 42°
2026-05-06 15:25 55.99448 -3.28740 3268 ft 216 kts 43°
2026-05-06 15:25 56.00589 -3.26914 3946 ft 223 kts 43°
2026-05-06 15:25 56.01745 -3.25052 4779 ft 224 kts 43°
2026-05-06 15:26 56.02913 -3.23169 5566 ft 228 kts 43°
2026-05-06 15:26 56.04104 -3.21241 6314 ft 233 kts 44°
2026-05-06 15:26 56.05007 -3.18839 7020 ft 237 kts 75°
2026-05-06 15:26 56.05241 -3.15936 7789 ft 238 kts 92°
2026-05-06 15:27 56.05083 -3.13014 8501 ft 241 kts 98°
2026-05-06 15:27 56.04636 -3.10119 9176 ft 244 kts 122°
2026-05-06 15:27 56.03642 -3.07654 9897 ft 245 kts 136°
2026-05-06 15:27 56.02328 -3.05712 10598 ft 247 kts 145°
2026-05-06 15:28 56.00925 -3.03839 11318 ft 250 kts 145°
2026-05-06 15:28 55.99547 -3.01985 12017 ft 252 kts 145°
2026-05-06 15:28 55.98127 -3.00080 12702 ft 256 kts 149°
2026-05-06 15:28 55.96471 -2.99046 13271 ft 256 kts 181°
2026-05-06 15:29 55.94646 -2.98871 13507 ft 281 kts 166°
2026-05-06 15:29 55.92884 -2.96989 13702 ft 310 kts 133°
2026-05-06 15:29 55.91817 -2.93577 13893 ft 335 kts 107°
2026-05-06 15:29 55.91259 -2.89395 14066 ft 358 kts 103°
2026-05-06 15:30 55.90680 -2.84948 14222 ft 379 kts 105°
2026-05-06 15:30 55.89945 -2.80308 14373 ft 399 kts 108°
2026-05-06 15:30 55.89032 -2.75533 14648 ft 412 kts 111°
2026-05-06 15:30 55.87976 -2.70734 15150 ft 419 kts 113°
2026-05-06 15:31 55.86824 -2.65949 15787 ft 421 kts 115°
2026-05-06 15:31 55.85617 -2.61202 16379 ft 425 kts 116°
2026-05-06 15:31 55.84362 -2.56418 16900 ft 430 kts 116°
2026-05-06 15:32 55.81760 -2.46709 17958 ft 438 kts 116°
2026-05-06 15:32 55.80439 -2.41816 18489 ft 442 kts 116°
2026-05-06 15:32 55.79101 -2.36863 18965 ft 446 kts 117°
2026-05-06 15:32 55.77752 -2.31878 19451 ft 450 kts 117°
2026-05-06 15:33 55.76392 -2.26858 19922 ft 453 kts 117°
2026-05-06 15:33 55.75019 -2.21795 20410 ft 456 kts 117°
2026-05-06 15:33 55.73638 -2.16709 20871 ft 459 kts 117°
2026-05-06 15:33 55.72244 -2.11587 21300 ft 463 kts 117°
2026-05-06 15:34 55.70838 -2.06433 21732 ft 466 kts 117°
2026-05-06 15:34 55.69425 -2.01261 22155 ft 468 kts 117°
2026-05-06 15:34 55.67996 -1.96046 22537 ft 472 kts 117°
2026-05-06 15:34 55.66556 -1.90802 22935 ft 474 kts 117°
2026-05-06 15:35 55.65105 -1.85532 23319 ft 477 kts 117°
2026-05-06 15:35 55.63647 -1.80245 23692 ft 479 kts 117°
2026-05-06 15:35 55.62197 -1.75003 24050 ft 482 kts 117°
2026-05-06 15:35 55.60701 -1.69603 24410 ft 484 kts 117°
2026-05-06 15:36 55.59232 -1.64315 24744 ft 486 kts 117°
2026-05-06 15:36 55.57736 -1.58940 25073 ft 489 kts 117°
2026-05-06 15:36 55.56225 -1.53531 25309 ft 493 kts 117°
2026-05-06 15:36 55.54702 -1.48086 25555 ft 496 kts 117°
2026-05-06 15:37 55.53167 -1.42613 25856 ft 498 kts 117°
2026-05-06 15:37 55.51632 -1.37151 26287 ft 496 kts 117°
2026-05-06 15:37 55.50114 -1.31758 26757 ft 493 kts 117°
2026-05-06 15:37 55.48590 -1.26360 27194 ft 491 kts 117°
2026-05-06 15:38 55.47063 -1.20965 27571 ft 491 kts 117°
2026-05-06 15:38 55.45535 -1.15579 27929 ft 492 kts 117°
2026-05-06 15:38 55.44006 -1.10204 28350 ft 489 kts 117°
2026-05-06 15:38 55.42483 -1.04860 28771 ft 488 kts 118°
2026-05-06 15:39 55.40960 -0.99526 29132 ft 488 kts 118°
2026-05-06 15:39 55.39434 -0.94200 29484 ft 487 kts 118°
2026-05-06 15:39 55.37908 -0.88886 29858 ft 486 kts 118°
2026-05-06 15:39 55.36383 -0.83586 30222 ft 485 kts 118°
2026-05-06 15:40 55.34862 -0.78305 30599 ft 484 kts 118°
2026-05-06 15:40 55.33341 -0.73041 30977 ft 483 kts 118°
2026-05-06 15:40 55.31817 -0.67779 31236 ft 484 kts 118°
2026-05-06 15:40 55.30283 -0.62498 31427 ft 487 kts 118°
2026-05-06 15:41 55.28741 -0.57200 31614 ft 489 kts 118°
2026-05-06 15:41 55.27193 -0.51889 31837 ft 489 kts 118°
2026-05-06 15:41 55.25647 -0.46593 32101 ft 488 kts 118°
2026-05-06 15:41 55.24117 -0.41373 32370 ft 487 kts 118°
2026-05-06 15:42 55.22569 -0.36103 32633 ft 487 kts 118°
2026-05-06 15:42 55.21020 -0.30836 32868 ft 486 kts 118°
2026-05-06 15:42 55.19469 -0.25576 33105 ft 486 kts 118°
2026-05-06 15:42 55.17915 -0.20318 33341 ft 485 kts 119°
2026-05-06 15:43 55.16359 -0.15071 33524 ft 487 kts 118°
2026-05-06 15:43 55.14802 -0.09823 33721 ft 487 kts 118°
2026-05-06 15:43 55.13242 -0.04578 33976 ft 486 kts 119°
2026-05-06 15:43 55.11681 0.00658 34239 ft 485 kts 119°
2026-05-06 15:44 55.10126 0.05863 34420 ft 485 kts 119°
2026-05-06 15:44 55.08558 0.11097 34600 ft 485 kts 120°
2026-05-06 15:44 55.06996 0.16301 34918 ft 482 kts 120°
2026-05-06 15:44 55.05439 0.21478 35156 ft 482 kts 120°
2026-05-06 15:45 55.03878 0.26656 35291 ft 483 kts 120°
2026-05-06 15:45 55.02313 0.31836 35427 ft 484 kts 120°
2026-05-06 15:45 55.00741 0.37028 35614 ft 484 kts 120°
2026-05-06 15:45 54.99171 0.42203 35828 ft 483 kts 120°
2026-05-06 15:46 54.97597 0.47378 36020 ft 483 kts 120°
2026-05-06 15:46 54.96024 0.52539 36171 ft 484 kts 120°
2026-05-06 15:46 54.94445 0.57709 36296 ft 485 kts 120°
2026-05-06 15:46 54.92856 0.62898 36448 ft 485 kts 120°
2026-05-06 15:47 54.91271 0.68065 36629 ft 485 kts 120°
2026-05-06 15:47 54.89685 0.73220 36836 ft 483 kts 120°
2026-05-06 15:47 54.88101 0.78364 37046 ft 482 kts 121°
2026-05-06 15:47 54.87052 0.81761 37036 ft 484 kts 121°
2026-05-06 15:48 54.83878 0.92012 37039 ft 479 kts 121°
2026-05-06 15:48 54.80230 1.03747 37042 ft 473 kts 121°
2026-05-06 15:49 54.77615 1.12118 37044 ft 470 kts 121°
2026-05-06 15:49 54.74502 1.22044 37043 ft 468 kts 121°
2026-05-06 15:50 54.71389 1.31937 37048 ft 468 kts 121°
2026-05-06 15:50 54.68260 1.41834 37043 ft 470 kts 121°
2026-05-06 15:51 54.65112 1.51745 37036 ft 471 kts 121°
2026-05-06 15:51 54.61969 1.61607 37028 ft 472 kts 121°
2026-05-06 15:52 54.58793 1.71534 37029 ft 473 kts 121°
2026-05-06 15:52 54.55602 1.81467 37025 ft 474 kts 121°
2026-05-06 15:53 54.52404 1.91381 37028 ft 474 kts 121°
2026-05-06 15:53 54.49196 2.01286 37027 ft 474 kts 121°
2026-05-06 15:54 54.45978 2.11176 37023 ft 474 kts 122°
2026-05-06 15:54 54.42759 2.21033 37031 ft 473 kts 122°
2026-05-06 15:55 54.39530 2.30872 37030 ft 473 kts 122°
2026-05-06 15:55 54.36296 2.40693 37025 ft 472 kts 122°
2026-05-06 15:56 54.33058 2.50489 37020 ft 472 kts 122°
2026-05-06 15:56 54.29814 2.60266 37017 ft 472 kts 122°
2026-05-06 15:57 54.26561 2.70032 37020 ft 472 kts 122°
2026-05-06 15:57 54.23301 2.79775 37018 ft 472 kts 122°
2026-05-06 15:58 54.20033 2.89499 37018 ft 472 kts 122°
2026-05-06 15:58 54.16758 2.99208 37018 ft 471 kts 122°
2026-05-06 15:59 54.13481 3.08887 37017 ft 471 kts 123°
2026-05-06 15:59 54.10197 3.18547 37014 ft 471 kts 123°
2026-05-06 16:00 54.06903 3.28199 37010 ft 471 kts 123°
2026-05-06 16:00 54.03604 3.37828 37011 ft 471 kts 123°
2026-05-06 16:01 54.00322 3.47368 36998 ft 470 kts 123°
2026-05-06 16:01 53.97018 3.56939 37003 ft 469 kts 123°
2026-05-06 16:02 53.93709 3.66485 36995 ft 469 kts 123°
2026-05-06 16:02 53.90399 3.76002 36991 ft 468 kts 123°
2026-05-06 16:03 53.87084 3.85499 36991 ft 468 kts 123°
2026-05-06 16:03 53.83827 3.95035 36976 ft 469 kts 117°
2026-05-06 16:04 53.81509 4.05393 36983 ft 471 kts 111°
2026-05-06 16:04 53.79359 4.15866 36978 ft 472 kts 111°
2026-05-06 16:05 53.77177 4.26317 36970 ft 471 kts 112°
2026-05-06 16:05 53.74953 4.36739 36973 ft 471 kts 112°
2026-05-06 16:06 53.72707 4.47141 36970 ft 471 kts 112°
2026-05-06 16:06 53.70451 4.57527 36977 ft 471 kts 112°
2026-05-06 16:07 53.68191 4.67886 36972 ft 470 kts 112°
2026-05-06 16:07 53.65938 4.78167 36969 ft 470 kts 112°
2026-05-06 16:08 53.63650 4.88567 36961 ft 470 kts 112°
2026-05-06 16:08 53.61361 4.98893 36966 ft 470 kts 113°
2026-05-06 16:09 53.59082 5.09132 36961 ft 470 kts 113°
2026-05-06 16:09 53.56784 5.19412 36961 ft 469 kts 113°
2026-05-06 16:10 53.54481 5.29670 36963 ft 469 kts 113°
2026-05-06 16:10 53.52168 5.39912 36956 ft 469 kts 113°
2026-05-06 16:11 53.49849 5.50133 36954 ft 468 kts 113°
2026-05-06 16:11 53.47520 5.60347 36947 ft 469 kts 114°
2026-05-06 16:12 53.45181 5.70558 36941 ft 469 kts 114°
2026-05-06 16:12 53.42834 5.80753 36945 ft 468 kts 114°
2026-05-06 16:13 53.40479 5.90940 36934 ft 468 kts 114°
2026-05-06 16:13 53.38116 6.01109 36936 ft 468 kts 114°
2026-05-06 16:14 53.35761 6.11197 36936 ft 468 kts 114°
2026-05-06 16:14 53.33384 6.21331 36934 ft 468 kts 114°
2026-05-06 16:15 53.30996 6.31460 36931 ft 468 kts 114°
2026-05-06 16:15 53.28601 6.41574 36932 ft 468 kts 114°
2026-05-06 16:16 53.26196 6.51680 36919 ft 468 kts 114°
2026-05-06 16:16 53.23782 6.61775 36909 ft 468 kts 114°
2026-05-06 16:17 53.21360 6.71862 36917 ft 468 kts 114°
2026-05-06 16:17 53.18932 6.81928 36916 ft 468 kts 115°
2026-05-06 16:18 53.16495 6.91982 36911 ft 468 kts 115°
2026-05-06 16:18 53.14051 7.02023 36903 ft 468 kts 115°
2026-05-06 16:19 53.11600 7.12047 36910 ft 468 kts 115°
2026-05-06 16:19 53.09138 7.22063 36912 ft 467 kts 115°
2026-05-06 16:20 53.06667 7.32068 36906 ft 468 kts 115°
2026-05-06 16:20 53.04189 7.42062 36908 ft 468 kts 115°
2026-05-06 16:21 53.01703 7.52037 36894 ft 468 kts 115°
2026-05-06 16:21 52.99206 7.62021 36902 ft 468 kts 115°
2026-05-06 16:22 52.96700 7.71990 36890 ft 468 kts 115°
2026-05-06 16:22 52.94185 7.81948 36885 ft 468 kts 115°
2026-05-06 16:23 52.91663 7.91893 36877 ft 468 kts 116°
2026-05-06 16:23 52.89133 8.01820 36880 ft 468 kts 116°
2026-05-06 16:24 52.86600 8.11727 36880 ft 467 kts 116°
2026-05-06 16:24 52.84057 8.21621 36874 ft 467 kts 116°
2026-05-06 16:25 52.81503 8.31513 36870 ft 467 kts 116°
2026-05-06 16:25 52.78940 8.41382 36873 ft 468 kts 116°
2026-05-06 16:26 52.76372 8.51253 36861 ft 468 kts 116°
2026-05-06 16:26 52.73796 8.61106 36861 ft 468 kts 116°
2026-05-06 16:27 52.71227 8.70888 36861 ft 467 kts 117°
2026-05-06 16:27 52.68634 8.80715 36862 ft 467 kts 117°
2026-05-06 16:28 52.66034 8.90525 36860 ft 467 kts 117°
2026-05-06 16:28 52.63426 9.00329 36862 ft 467 kts 117°
2026-05-06 16:29 52.60809 9.10122 36854 ft 468 kts 117°
2026-05-06 16:29 52.58179 9.19919 36839 ft 468 kts 117°
2026-05-06 16:30 52.55972 9.28111 36834 ft 468 kts 117°
2026-05-06 16:30 52.52895 9.39480 36833 ft 468 kts 117°
2026-05-06 16:31 52.50244 9.49229 36834 ft 468 kts 117°
2026-05-06 16:31 52.47581 9.58987 36835 ft 468 kts 118°
2026-05-06 16:32 52.44922 9.68686 36834 ft 468 kts 118°
2026-05-06 16:32 52.42243 9.78419 36837 ft 468 kts 118°
2026-05-06 16:33 52.39557 9.88134 36833 ft 469 kts 118°
2026-05-06 16:34 52.35507 10.02706 36832 ft 469 kts 118°
2026-05-06 16:34 52.32800 10.12397 36831 ft 469 kts 118°
2026-05-06 16:35 52.30084 10.22084 36816 ft 469 kts 118°
2026-05-06 16:35 52.27357 10.31762 36812 ft 469 kts 118°
2026-05-06 16:36 52.25084 10.39808 36808 ft 469 kts 118°
2026-05-06 16:36 52.22344 10.49464 36803 ft 469 kts 118°
2026-05-06 16:37 52.19595 10.59107 36804 ft 469 kts 119°
2026-05-06 16:37 52.16842 10.68735 36808 ft 469 kts 119°
2026-05-06 16:38 52.14082 10.78349 36802 ft 468 kts 119°
2026-05-06 16:38 52.11095 10.87724 36809 ft 465 kts 125°
2026-05-06 16:39 52.07654 10.96592 36800 ft 463 kts 127°
2026-05-06 16:39 52.04163 11.05402 36806 ft 464 kts 127°
2026-05-06 16:40 52.00705 11.14246 36803 ft 464 kts 126°
2026-05-06 16:40 51.97127 11.22928 36802 ft 461 kts 131°
2026-05-06 16:41 51.93244 11.31180 36808 ft 460 kts 132°
2026-05-06 16:41 51.89321 11.39379 36804 ft 460 kts 132°
2026-05-06 16:42 51.85427 11.47612 36806 ft 461 kts 132°
2026-05-06 16:42 51.81575 11.55812 36807 ft 461 kts 131°
2026-05-06 16:43 51.77704 11.64055 36805 ft 461 kts 131°
2026-05-06 16:43 51.73820 11.72294 36799 ft 461 kts 132°
2026-05-06 16:44 51.69934 11.80514 36794 ft 461 kts 132°
2026-05-06 16:44 51.66039 11.88720 36787 ft 461 kts 132°
2026-05-06 16:45 51.62114 11.96962 36787 ft 461 kts 132°
2026-05-06 16:45 51.58230 12.05094 36781 ft 461 kts 132°
2026-05-06 16:46 51.54315 12.13261 36777 ft 461 kts 132°
2026-05-06 16:46 51.50389 12.21424 36775 ft 461 kts 132°
2026-05-06 16:47 51.46467 12.29554 36779 ft 461 kts 133°
2026-05-06 16:47 51.42537 12.37681 36778 ft 461 kts 133°
2026-05-06 16:48 51.38606 12.45783 36776 ft 461 kts 133°
2026-05-06 16:48 51.34666 12.53876 36768 ft 461 kts 133°
2026-05-06 16:49 51.30722 12.61951 36770 ft 461 kts 133°
2026-05-06 16:49 51.26763 12.70031 36767 ft 461 kts 133°
2026-05-06 16:50 51.22809 12.78077 36756 ft 461 kts 133°
2026-05-06 16:50 51.18839 12.86132 36763 ft 461 kts 134°
2026-05-06 16:51 51.14864 12.94171 36754 ft 461 kts 134°
2026-05-06 16:51 51.10888 13.02189 36756 ft 461 kts 134°
2026-05-06 16:52 51.06899 13.10201 36760 ft 462 kts 134°
2026-05-06 16:52 51.02910 13.18193 36749 ft 463 kts 134°